CAPE
0 0 0 0 0 0 0 0 0 0 0 2 0 0 0 0 0 0 0 0 0 0 0 0 0 0 0 0 0 0 0 0 0 0 0 0 0 0 0 0 0 0 0
0 0 0 0 0 0 0 0 0 0 0 0 0 0 0 0 0 0 0 0 0 0 0 0 0 0 0 0 0 0 0 0 0 0 0 0 0 0 0 0 0 0 0
0 0 0 0 0 0 0 0 0 0 0 0 0 0 0 0 0 0 0 0 0 0 0 0 0 0 0 0 0 0 0 0 0 0 0 0 0 0 0 0 0 0 0
0 0 0 0 0 0 0 0 0 0 0 0 0 0 0 0 0 0 0 0 0 0 0 0 0 0 0 0 0 0 0 0 0 0 1 0 0 0 0 0 0 0 0
0 0 0 0 0 0 0 0 0 0 0 0 0 0 0 0 0 0 0 0 0 0 0 0 0 0 0 0 0 0 0 0 0 1 0 5 0 0 0 0 0 0 0
0 0 0 0 0 0 0 0 0 0 0 0 0 0 0 0 0 0 0 0 0 0 0 0 0 0 0 0 0 0 2 0 0 0 0 0 1 0 0 0 0 0 0
0 0 0 0 0 0 0 0 0 0 0 0 0 0 0 0 0 0 0 0 0 0 0 0 0 0 0 0 0 0 0 0 1 0 0 0 0 1 0 0 0 0 2
0 0 0 0 0 0 0 0 0 0 0 0 0 0 0 0 0 0 0 0 0 0 0 0 0 0 0 0 0 0 0 0 0 1 0 6 0 0 0 1 4 3 0
0 0 0 0 0 0 0 0 0 0 0 0 0 0 0 0 0 0 0 0 0 0 0 0 0 0 0 0 0 0 0 0 0 0 0 0 0 0 0 0 0 0 2
0 0 0 0 0 0 0 0 0 0 0 0 0 0 0 0 0 0 0 0 0 0 0 0 0 0 0 0 0 0 0 0 0 0 0 0 0 0 0 0 1 0 15
0 0 0 0 0 0 0 0 0 0 0 0 0 0 0 0 0 0 0 0 0 0 0 0 0 0 0 0 0 0 0 0 0 0 0 0 0 0 0 0 0 1 5
0 0 0 0 0 0 0 0 0 0 0 0 0 0 0 0 0 0 0 0 0 0 0 0 0 0 0 0 0 0 0 0 0 0 0 0 0 1 0 0 0 0 0
0 0 0 0 0 0 0 0 0 0 0 0 0 0 0 0 0 0 0 0 0 0 0 0 0 0 0 0 0 0 0 0 0 0 0 0 0 0 3 2 0 0 0
0 0 0 0 0 0 0 0 0 0 0 0 0 0 0 0 0 0 0 0 0 0 0 0 0 0 0 0 0 0 0 0 0 0 0 0 2 1 0 3 1 0 1
0 0 0 0 0 0 0 0 0 0 0 0 0 0 0 0 0 0 0 0 0 0 0 0 0 0 0 0 0 0 0 0 0 0 0 1 4 1 1 1 1 1 4
0 0 0 0 0 0 0 0 0 0 0 0 0 0 0 0 0 0 0 0 0 0 0 0 0 0 0 0 0 0 0 0 0 0 0 0 2 2 1 1 1 2 2
0 0 0 0 0 0 0 0 0 0 0 0 0 0 0 0 0 0 0 0 0 0 0 0 0 0 0 0 0 0 0 0 0 0 1 1 1 2 1 1 2 2 1
0 0 0 0 0 0 0 0 0 0 0 0 0 0 0 0 0 0 0 0 0 0 0 0 0 0 0 0 0 0 0 0 0 0 2 1 1 1 1 1 2 1 1
0 0 0 0 0 0 0 0 0 0 0 0 0 0 0 0 0 0 0 0 0 0 0 0 0 0 0 0 0 0 0 0 0 1 1 1 1 1 1 1 1 1 1
0 0 0 0 0 0 0 0 0 0 0 0 0 0 0 0 0 0 0 0 0 0 0 0 0 0 0 0 0 0 0 0 0 1 2 2 1 1 1 1 1 1 1
0 0 0 0 0 0 0 0 0 0 0 0 0 0 0 0 0 0 0 0 0 0 0 0 0 0 0 0 0 0 0 0 1 1 1 1 1 1 1 0 1 1 1
0 0 0 0 0 0 0 0 0 0 0 0 0 0 0 0 0 0 0 0 0 0 0 0 0 0 0 0 0 0 0 0 0 0 0 0 0 0 1 0 0 0 1
0 0 0 0 0 0 0 0 0 0 0 0 0 0 0 0 0 0 0 0 0 0 0 0 0 0 0 0 0 0 0 0 0 0 0 0 0 0 0 0 1 1 0
0 0 0 0 0 0 0 0 0 0 0 0 0 0 0 0 0 0 0 0 0 0 0 0 0 0 0 0 0 0 0 0 0 0 0 0 0 0 0 0 0 0 0
0 0 0 0 0 0 0 0 0 0 0 0 0 0 0 0 0 0 0 0 0 0 0 0 0 0 0 0 0 0 0 0 0 0 0 0 0 0 0 0 0 0 0
0 0 0 0 0 0 0 0 0 0 0 0 0 0 0 0 0 0 0 0 0 0 0 0 0 0 0 0 0 0 0 0 0 0 0 0 0 0 0 0 0 0 0
CIN
0 0 0 0 0 0 0 0 0 0 -10 -7 0 0 0 0 0 0 0 0 0 0 0 0 0 0 0 0 0 0 0 0 0 0 0 0 0 0 0 0 0 0 0
0 0 0 0 0 0 0 0 0 0 0 0 0 0 0 0 0 0 0 0 0 0 0 0 0 0 0 0 0 0 0 0 0 0 0 0 0 0 0 0 0 0 0
0 0 0 0 0 0 0 0 0 0 0 0 0 0 0 0 0 0 0 0 0 0 0 0 0 0 0 0 0 0 0 0 0 0 0 0 0 0 0 0 0 0 0
0 0 0 0 0 0 0 0 0 0 0 0 0 0 0 0 0 0 0 0 0 0 0 0 0 0 0 0 0 0 0 0 0 0 -15 -4 0 0 0 0 0 0 0
0 0 0 0 0 0 0 0 0 0 0 0 0 0 0 0 0 0 0 0 0 0 0 0 0 0 0 0 0 0 0 0 0 -12 0 -15 -20 0 0 0 0 0 0
0 0 0 0 0 0 0 0 0 0 0 0 0 0 0 0 0 0 0 0 0 0 0 0 0 0 0 0 0 0 -35 0 0 0 0 0 -22 0 0 0 0 0 0
0 0 0 0 0 0 0 0 0 0 0 0 0 0 0 0 0 0 0 0 0 0 0 0 0 0 0 0 0 0 0 0 -18 -1 0 -8 0 -7 0 -1 -2 0 -4
0 0 0 0 0 0 0 0 0 0 0 0 0 0 0 0 0 0 0 0 0 0 0 0 0 0 0 0 0 0 0 0 0 -17 -3 -33 0 -15 0 -7 -11 -17 0
0 0 0 0 0 0 0 0 0 0 0 0 0 0 0 0 0 0 0 0 0 0 0 0 0 0 0 0 0 0 0 0 0 0 0 0 0 -5 0 -2 -2 0 0
0 0 0 0 0 0 0 0 0 0 0 0 0 0 0 0 0 0 0 0 0 0 0 0 0 0 0 0 0 0 0 0 0 0 0 0 0 0 0 0 -12 -6 0
0 0 0 0 0 0 0 0 0 0 0 0 0 0 0 0 0 0 0 0 0 0 0 0 0 0 0 0 0 0 0 0 0 0 0 0 0 0 0 0 0 -7 -3
0 0 0 0 0 0 0 0 0 0 0 0 0 0 0 0 0 0 0 0 0 0 0 0 0 0 0 0 0 0 0 0 0 0 0 0 0 0 0 -10 0 -12 0
0 0 0 0 0 0 0 0 0 0 0 0 0 0 0 0 0 0 0 0 0 0 0 0 0 0 0 0 0 0 0 0 0 0 0 0 0 -1 -1 -3 0 0 -1
0 0 0 0 0 0 0 0 0 0 0 0 0 0 0 0 0 0 0 0 0 0 0 0 0 0 0 0 0 0 0 0 0 0 -5 -1 -5 0 0 0 0 0 0
0 0 0 0 0 0 0 0 0 0 0 0 0 0 0 0 0 0 0 0 0 0 0 0 0 0 0 0 0 0 0 0 0 0 0 0 0 0 0 0 0 0 0
0 0 0 0 0 0 0 0 0 0 0 0 0 0 0 0 0 0 0 0 0 0 0 0 0 0 0 0 0 0 0 0 0 0 0 0 0 0 0 0 0 0 0
0 0 0 0 0 0 0 0 0 0 0 0 0 0 0 0 0 0 0 0 0 0 0 0 0 0 0 0 0 0 0 0 0 0 0 0 0 0 0 0 0 0 0
0 0 0 0 0 0 0 0 0 0 0 0 0 0 0 0 0 0 0 0 0 0 0 0 0 0 0 0 0 0 0 0 0 0 0 0 0 0 0 0 0 0 0
0 0 0 0 0 0 0 0 0 0 0 0 0 0 0 0 0 0 0 0 0 0 0 0 0 0 0 0 0 0 0 0 0 0 0 0 0 0 0 0 0 0 0
0 0 0 0 0 0 0 0 0 0 0 0 0 0 0 0 0 0 0 0 0 0 0 0 0 0 0 0 0 0 0 0 0 0 0 0 0 0 0 0 0 0 0
0 0 0 0 0 0 0 0 0 0 0 0 0 0 0 0 0 0 0 0 0 0 0 0 0 0 0 0 0 0 0 0 0 0 0 0 0 0 0 0 0 0 0
0 0 0 0 0 0 0 0 0 0 0 0 0 0 0 0 0 0 0 0 0 0 0 0 0 0 0 0 0 0 0 0 0 0 0 0 0 0 0 0 0 0 0
0 0 0 0 0 0 0 0 0 0 0 0 0 0 0 0 0 0 0 0 0 0 0 0 0 0 0 0 0 0 0 0 0 0 0 0 0 -2 0 0 -1 0 0
0 0 0 0 0 0 0 0 0 0 0 0 0 0 0 0 0 0 -8 0 0 0 0 0 0 0 0 0 0 0 0 0 0 0 0 0 -1 0 0 0 0 0 0
0 0 0 0 0 0 0 0 0 0 0 0 0 0 0 0 0 0 0 0 0 0 0 0 0 0 0 0 0 0 0 0 0 0 0 0 0 0 0 0 0 0 0
0 0 0 0 0 0 0 0 0 0 0 0 0 0 0 0 0 0 0 0 0 0 0 0 0 0 0 0 0 0 0 0 0 0 0 0 0 0 0 0 0 0 0
Wind_Speed
31 30 30 28 27 26 27 26 26 25 25 26 26 26 26 27 27 28 28 29 30 30 30 30 29 28 28 27 26 25 25 25 26 25 25 27 27 28 29 29 30 31 32
28 28 28 25 25 25 26 25 24 25 27 28 29 29 29 29 28 29 30 31 31 31 30 30 30 30 29 27 26 26 25 25 25 26 25 26 27 27 29 30 32 33 34
27 26 24 24 23 23 23 22 24 27 28 29 30 30 31 30 29 29 30 32 33 32 30 29 30 31 30 28 26 26 26 26 25 26 27 26 27 29 32 31 33 35 34
24 23 22 21 20 20 21 23 25 27 28 30 30 31 31 30 28 27 28 31 32 32 31 30 30 30 31 30 27 27 26 28 28 28 28 29 27 29 29 32 36 34 35
21 19 17 16 18 20 21 22 24 27 29 30 31 32 32 31 30 25 26 29 30 32 32 32 30 30 31 30 29 27 27 29 30 29 28 28 31 33 34 32 34 34 34
16 12 11 15 17 14 14 18 26 27 28 29 31 32 33 31 33 27 25 28 29 30 31 30 30 29 30 30 29 26 26 28 30 30 29 31 31 32 31 33 33 31 32
11 10 10 9 10 11 17 25 21 21 23 24 28 31 31 32 33 31 29 29 29 30 29 29 30 30 29 27 26 25 26 26 25 27 30 30 32 33 31 33 32 31 31
12 10 8 8 7 6 17 27 22 20 20 22 27 31 30 31 32 31 30 29 30 30 29 29 29 30 30 28 25 23 22 24 24 24 25 28 31 31 28 27 28 31 30
13 10 8 7 6 11 20 20 21 21 21 22 24 29 30 30 31 32 31 31 31 31 30 31 31 32 34 32 28 28 25 24 24 22 26 28 34 32 33 32 33 32 30
12 9 8 6 11 16 17 20 23 24 23 22 24 26 27 29 32 33 33 31 31 31 31 32 33 34 36 35 32 28 27 28 27 26 29 30 32 36 34 32 32 31 28
13 11 9 10 17 22 22 22 22 24 24 25 25 26 26 28 31 33 33 33 31 31 32 33 33 35 36 37 33 29 28 27 30 31 30 32 36 36 34 33 30 28 28
14 11 9 14 17 22 23 24 26 26 26 27 26 26 27 28 30 33 33 33 31 31 32 32 33 36 37 36 35 30 30 32 33 34 34 38 38 37 35 32 30 27 23
13 12 10 11 14 17 19 21 22 24 26 27 27 27 27 28 30 33 33 33 33 31 31 33 35 36 37 36 33 34 35 36 36 35 37 36 34 36 33 30 28 27 26
13 11 10 12 12 13 14 15 16 18 21 23 25 26 26 27 29 32 31 31 32 31 33 35 37 36 35 35 35 31 34 34 35 35 34 29 33 33 29 28 25 24 23
13 13 14 13 12 11 11 10 11 12 14 18 21 22 24 26 26 27 27 28 29 29 32 34 36 37 39 38 38 34 30 33 38 30 11 7 16 30 26 25 23 22 21
16 16 15 15 15 14 15 14 11 8 10 11 13 17 20 18 20 24 26 27 29 28 31 33 34 36 39 40 41 36 26 12 14 12 19 29 15 24 24 22 22 21 20
17 17 15 14 14 14 14 14 16 16 14 10 11 14 15 17 20 23 25 25 28 28 30 32 33 34 35 34 25 14 10 9 10 12 10 10 17 17 19 20 20 19 19
18 4 12 13 15 14 14 13 15 17 18 17 16 18 20 20 21 23 24 24 27 28 28 29 30 28 25 14 14 13 11 11 12 11 8 4 9 14 14 16 17 18 17
18 16 16 13 11 12 15 14 15 17 19 18 16 18 20 20 21 22 23 23 25 26 26 26 25 26 18 14 15 14 10 10 10 11 8 6 3 11 14 14 15 15 15
19 16 12 11 13 13 13 15 15 17 19 19 17 15 19 20 21 21 21 20 22 23 23 24 25 23 17 15 18 15 12 12 15 13 10 7 3 7 10 12 13 13 12
18 18 15 13 13 14 13 14 15 16 19 18 19 16 15 17 17 19 20 18 19 19 21 22 24 20 14 15 16 13 13 17 20 16 10 6 4 9 9 9 10 10 9
15 15 16 13 13 16 16 17 16 18 21 20 20 19 16 16 16 17 17 18 18 18 21 22 24 23 14 18 15 13 15 19 13 9 7 5 6 8 7 7 8 8 8
15 16 16 16 18 18 19 21 22 22 23 23 22 21 20 21 20 18 19 21 20 18 21 22 24 16 15 15 13 17 17 13 9 5 6 6 7 6 8 7 7 7 8
19 19 20 21 21 21 24 26 27 26 25 26 25 23 21 21 20 19 22 22 20 20 22 24 30 17 20 18 12 13 15 10 10 5 2 7 11 12 11 10 9 8 8
21 20 20 21 22 24 26 28 29 29 29 29 27 26 25 25 24 24 24 23 22 21 22 26 33 24 22 21 17 11 10 7 5 5 4 4 7 10 11 12 11 10 9
18 18 20 21 23 25 27 29 30 30 29 28 28 27 27 26 26 25 23 22 22 22 24 28 30 24 24 20 15 14 12 10 8 6 3 3 5 12 11 13 14 15 12
Wind_Direction
354 355 352 353 354 1 6 6 1 359 0 9 12 13 12 12 12 12 12 10 9 7 6 4 2 359 356 353 351 349 346 342 336 335 333 330 329 327 326 328 327 324 321
360 356 355 2 5 11 6 3 1 5 15 19 20 18 18 17 18 18 16 13 10 7 6 6 4 3 360 1 1 359 354 351 348 341 340 337 335 333 332 328 327 325 321
359 355 1 4 4 359 356 357 0 9 13 14 16 19 20 21 21 21 18 14 11 11 10 8 4 1 359 358 356 352 349 348 348 342 337 339 336 333 328 330 328 326 325
352 360 354 349 347 347 351 355 1 4 7 12 16 16 17 18 21 21 20 18 17 18 17 16 14 11 7 0 357 355 353 347 344 340 338 337 336 336 336 330 326 328 326
342 334 337 331 336 343 346 344 353 14 18 20 21 19 18 20 20 24 24 20 18 16 17 16 18 15 10 9 6 2 359 352 349 346 346 341 333 331 328 331 325 324 325
306 290 281 310 316 298 298 318 21 22 26 28 26 23 21 22 17 23 26 20 16 13 11 13 12 9 6 6 8 10 8 1 355 352 349 345 340 337 335 327 329 329 323
209 227 263 271 279 288 314 26 45 43 41 39 33 25 24 22 20 22 21 17 14 12 13 13 9 7 6 6 6 6 3 2 2 358 350 347 340 337 337 329 328 324 320
182 216 223 241 239 247 37 27 48 55 52 43 31 26 28 24 20 20 17 15 14 14 14 14 12 8 6 6 7 7 4 3 4 3 359 350 343 341 345 343 338 323 318
176 208 224 226 195 98 58 59 56 52 47 44 37 29 27 25 22 18 16 15 14 13 14 14 12 6 0 2 5 360 2 4 6 6 2 356 338 333 329 328 309 307 313
173 187 202 174 103 78 69 57 46 45 46 43 35 32 31 28 23 19 18 17 16 16 14 11 7 4 357 356 358 359 358 356 358 0 356 353 348 328 323 326 320 294 283
164 189 202 136 88 70 64 58 54 47 42 39 35 36 34 30 24 21 20 21 21 17 14 11 9 4 0 356 357 357 356 359 352 350 351 349 338 331 322 318 321 319 294
163 189 191 109 86 66 60 58 51 47 44 42 40 39 35 30 26 21 20 21 21 18 15 14 11 4 1 1 1 4 360 351 347 343 342 337 332 327 327 320 311 318 334
199 210 182 121 87 70 62 57 53 49 45 44 40 37 32 29 26 20 20 19 19 20 18 14 9 6 3 2 4 2 357 348 345 341 335 339 343 331 323 330 314 309 308
189 194 151 112 92 76 68 62 56 52 46 43 38 34 30 27 24 21 20 21 20 21 17 13 10 11 11 10 8 11 6 3 353 349 348 354 345 329 317 324 304 304 300
137 104 81 81 82 77 68 63 58 55 50 41 37 33 27 24 24 22 22 23 23 24 20 18 15 11 7 8 3 9 14 9 355 5 16 291 324 317 309 308 305 295 290
352 43 67 70 64 60 54 50 57 56 48 41 35 31 27 26 24 24 25 27 26 26 24 23 21 16 9 7 351 9 22 14 21 22 23 311 279 300 302 297 300 295 288
323 33 63 71 63 55 49 47 42 40 40 38 32 27 26 25 26 26 27 30 29 29 27 25 24 22 20 19 25 16 344 348 7 26 23 292 287 281 287 293 295 292 292
310 109 79 64 50 46 45 48 44 37 33 32 35 32 29 29 28 29 30 33 30 31 30 29 28 30 29 10 341 333 332 14 21 17 15 312 268 272 269 278 286 288 285
331 36 46 54 54 49 44 48 42 36 31 29 29 29 29 28 28 28 29 31 30 30 31 31 33 31 26 350 335 332 351 350 355 14 21 48 221 264 268 266 271 277 277
340 30 59 55 43 40 40 39 34 30 25 24 24 23 25 26 27 24 26 30 30 31 33 34 33 31 23 339 329 331 9 351 20 20 41 70 146 238 251 261 269 269 263
360 19 39 42 36 38 41 34 27 24 20 18 16 20 20 20 20 22 24 28 28 30 31 33 33 31 5 344 336 355 11 19 29 43 61 92 149 260 252 250 252 260 253
22 32 32 36 36 35 34 27 23 21 18 18 17 21 20 25 19 21 23 25 23 30 32 33 32 32 338 332 347 9 15 29 39 49 65 102 244 253 238 236 227 228 230
23 21 25 33 30 30 27 24 23 20 19 18 19 21 25 21 18 21 25 18 21 33 32 32 31 30 332 340 12 32 28 36 30 48 81 109 139 171 180 192 207 211 208
6 12 14 21 25 26 21 19 19 19 19 21 21 19 18 17 27 27 20 25 31 36 33 30 18 318 322 329 350 31 39 47 51 72 104 119 124 130 142 156 173 192 198
355 8 20 22 25 21 19 18 17 18 17 18 19 21 22 23 24 28 29 29 32 30 35 26 359 321 322 327 331 348 1 1 23 64 102 134 133 131 138 138 151 164 171
5 19 21 22 20 17 14 13 13 14 15 19 21 22 23 24 25 26 28 27 30 32 30 17 343 324 325 326 330 334 340 335 325 312 293 159 129 134 139 136 139 143 154